TITAN 3C TRANSTAGE DEB, 38692

Orbit data source: Space-Track

TITAN 3C TRANSTAGE DEB, 38692 is space debris in GEO originally from a launch on Thu, 26 Sep 1968 UTC launched from the Air Force Eastern Test Range (AFETR). Debris objects in space refer to the collection of defunct objects orbiting the Earth. Examples of debris include non-operational satellites, rocket bodies, and fragments generated from explosions, collisions, or faulty payload assembly.

Loading next visibility...
Identifier
38692, 1968-081S
Orbit
GEO
Country
Flag of USUS
Related business
Manufacturer
Unknown
Mission
Spacecraft
Bus & Motor
Unknown
Mass
Unknown
Launch date (UTC)
1968-09-26 (57 years ago)
Launch vehicle
Unknown
Launch site
Air Force Eastern Test Range (AFETR)
Object type
Payload
Rocket body
Debris
Shape & HBR
Unknown shape, 1.1 m
Radar Cross Section
Small (<0.1 m²)

Expand to show TLE details & history
Last TLE update: 1 month ago

TLE from 1 month ago
0 TITAN 3C TRANSTAGE DEB
1 38692U 68081S   26035.72438965 -.00000316  00000-0  00000+0 0  9991
2 38692   1.8223  12.5471 0331077 301.6124  55.8034  0.99218049 40072
Epoch: 2026-02-04T17:23Z
TLE epoch observation values (Epoch: 2026-02-04T17:23:07.265Z)
Latitude
-0.00001°
Longitude
-22.44319°
Altitude
35,323.514 km
Speed
3.119 km/s
True Right ascension
00h 52m 53s
True Declination
0° 00' 00"
Sunlit
Object was in daylight at epoch
Visualization orbit readout
Latitude
Unknown
Longitude
Unknown
Altitude
Unknown
Speed
Unknown
Apparent Right ascension
Unknown
Apparent Declination
Unknown
Sunlit
N/A
Visualization observer readout
Local Sidereal Time
17:03:57
Azimuth
Unknown
Elevation
Unknown
Doppler factor
Unknown
Orbital elements
Apogee altitude
37,491.549 km
Perigee altitude
34,679.791 km
Semi-major axis
42,463.807 km
Eccentricity
0.03311
Inclination
1.8223°
RAAN
12.5471°
Arg. of periapsis
301.6124°
True anomaly
59.01432°
Mean anomaly
55.8034°
Eccentric anomaly
57.4015°
Mean motion
0.24804 °/min
Orbital period
1,451.4 mins
BSTAR
0
Loading maneuver chart data...
Computing Atmospheric mass density...

Documentation

Showing up to 5 results
|